When you browse on this site, cookies collect data to enhance your experience and personalize the content and advertising you see.
Visit our Privacy Policy to learn more. By continuing to use the site, you agree to this use of cookies and data.
  • In Österreich
  • Länderverzeichnis
  • Für 7 Tage
  • Wassertemperatur
  • Satellitenkarten
  • Wetterkarte
  • News
  • Widgets
  • user-avatar
    Anmelden

    Stündliche Wetter Lenin

    Heute, 24 Mai, Freitag

    Zeit Temperatur Niederschläge Wind Luftdruck Luftfeuchtigkeit
    00:00 +16°C° 0 mm 1 m/S 745 mmHg 89%
    01:00 +15°C° 0 mm 1 m/S 745 mmHg 90%
    02:00 +15°C° 0 mm 1 m/S 745 mmHg 91%
    03:00 +15°C° 0 mm 1 m/S 745 mmHg 92%
    04:00 +14°C° 0 mm 2 m/S 745 mmHg 93%
    05:00 +14°C° 0 mm 2 m/S 745 mmHg 94%
    06:00 +16°C° 0 mm 2 m/S 745 mmHg 89%
    07:00 +18°C° 0 mm 2 m/S 745 mmHg 85%
    08:00 +19°C° 0 mm 2 m/S 746 mmHg 80%
    09:00 +20°C° 0.4 mm 2 m/S 745 mmHg 76%
    10:00 +23°C° 0.4 mm 2 m/S 745 mmHg 72%
    11:00 +24°C° 0.4 mm 3 m/S 745 mmHg 69%
    12:00 +24°C° 0 mm 3 m/S 745 mmHg 67%
    13:00 +24°C° 0 mm 3 m/S 745 mmHg 65%
    14:00 +25°C° 0 mm 3 m/S 745 mmHg 62%
    15:00 +24°C° 0.2 mm 3 m/S 745 mmHg 66%
    16:00 +24°C° 0.2 mm 3 m/S 744 mmHg 69%
    17:00 +22°C° 0.2 mm 3 m/S 744 mmHg 72%
    18:00 +21°C° 0.4 mm 3 m/S 744 mmHg 78%
    19:00 +19°C° 0.4 mm 3 m/S 744 mmHg 85%
    20:00 +18°C° 0.4 mm 3 m/S 744 mmHg 92%
    21:00 +17°C° 0 mm 2 m/S 744 mmHg 93%
    22:00 +16°C° 0 mm 2 m/S 744 mmHg 95%
    23:00 +15°C° 0 mm 2 m/S 744 mmHg 97%

    Morgen, 25 Mai, Samstag

    Zeit Temperatur Niederschläge Wind Luftdruck Luftfeuchtigkeit
    00:00 +15°C° 0 mm 2 m/S 744 mmHg 97%
    01:00 +14°C° 0 mm 2 m/S 744 mmHg 97%
    02:00 +14°C° 0 mm 2 m/S 744 mmHg 98%
    03:00 +14°C° 0 mm 2 m/S 744 mmHg 98%
    04:00 +14°C° 0 mm 2 m/S 744 mmHg 98%
    05:00 +13°C° 0 mm 2 m/S 744 mmHg 98%
    06:00 +15°C° 0 mm 2 m/S 744 mmHg 93%
    07:00 +16°C° 0 mm 3 m/S 744 mmHg 89%
    08:00 +17°C° 0 mm 3 m/S 744 mmHg 85%
    09:00 +19°C° 0 mm 3 m/S 744 mmHg 78%
    10:00 +20°C° 0 mm 4 m/S 744 mmHg 71%
    11:00 +22°C° 0 mm 4 m/S 744 mmHg 64%
    12:00 +22°C° 0 mm 4 m/S 744 mmHg 60%
    13:00 +23°C° 0 mm 5 m/S 744 mmHg 56%
    14:00 +23°C° 0 mm 5 m/S 743 mmHg 53%
    15:00 +23°C° 0 mm 4 m/S 743 mmHg 53%
    16:00 +23°C° 0 mm 4 m/S 743 mmHg 53%
    17:00 +22°C° 0 mm 4 m/S 743 mmHg 53%
    18:00 +20°C° 0 mm 3 m/S 743 mmHg 60%
    19:00 +19°C° 0 mm 2 m/S 743 mmHg 68%
    20:00 +17°C° 0 mm 2 m/S 744 mmHg 75%
    21:00 +16°C° 0 mm 2 m/S 744 mmHg 78%
    22:00 +15°C° 0 mm 2 m/S 744 mmHg 81%
    23:00 +14°C° 0 mm 2 m/S 744 mmHg 85%

    übermorgen, 26 Mai, Sonntag

    Zeit Temperatur Niederschläge Wind Luftdruck Luftfeuchtigkeit
    00:00 +14°C° 0 mm 2 m/S 744 mmHg 88%
    01:00 +13°C° 0 mm 2 m/S 745 mmHg 91%
    02:00 +13°C° 0 mm 2 m/S 745 mmHg 95%
    03:00 +12°C° 0 mm 2 m/S 745 mmHg 94%
    04:00 +12°C° 0 mm 2 m/S 745 mmHg 93%
    05:00 +10°C° 0 mm 2 m/S 745 mmHg 92%
    06:00 +13°C° 0 mm 2 m/S 745 mmHg 83%
    07:00 +15°C° 0 mm 2 m/S 746 mmHg 75%
    08:00 +16°C° 0 mm 2 m/S 746 mmHg 67%
    09:00 +17°C° 0 mm 3 m/S 746 mmHg 64%
    10:00 +19°C° 0 mm 3 m/S 746 mmHg 61%
    11:00 +20°C° 0 mm 4 m/S 746 mmHg 59%
    12:00 +20°C° 0 mm 4 m/S 746 mmHg 57%
    13:00 +21°C° 0 mm 4 m/S 745 mmHg 55%
    14:00 +21°C° 0 mm 5 m/S 745 mmHg 53%
    15:00 +21°C° 0 mm 5 m/S 745 mmHg 54%
    16:00 +21°C° 0 mm 5 m/S 745 mmHg 56%
    17:00 +21°C° 0 mm 5 m/S 745 mmHg 57%
    18:00 +20°C° 0.1 mm 4 m/S 745 mmHg 64%
    19:00 +18°C° 0.1 mm 4 m/S 745 mmHg 72%
    20:00 +17°C° 0.1 mm 3 m/S 745 mmHg 79%
    21:00 +16°C° 0 mm 3 m/S 745 mmHg 83%
    22:00 +14°C° 0 mm 3 m/S 745 mmHg 87%
    23:00 +14°C° 0 mm 3 m/S 746 mmHg 91%

    27 Mai, Montag

    Zeit Temperatur Niederschläge Wind Luftdruck Luftfeuchtigkeit
    00:00 +13°C° 0 mm 3 m/S 746 mmHg 93%
    01:00 +13°C° 0 mm 2 m/S 746 mmHg 94%
    02:00 +12°C° 0 mm 2 m/S 746 mmHg 95%
    03:00 +12°C° 0 mm 2 m/S 747 mmHg 95%
    04:00 +11°C° 0 mm 1 m/S 747 mmHg 94%
    05:00 +11°C° 0 mm 1 m/S 747 mmHg 94%
    06:00 +13°C° 0 mm 2 m/S 747 mmHg 85%
    07:00 +15°C° 0 mm 2 m/S 747 mmHg 77%
    08:00 +17°C° 0 mm 3 m/S 748 mmHg 68%
    09:00 +18°C° 0 mm 3 m/S 748 mmHg 63%
    10:00 +20°C° 0 mm 3 m/S 748 mmHg 58%
    11:00 +21°C° 0 mm 4 m/S 748 mmHg 53%
    12:00 +22°C° 0 mm 4 m/S 747 mmHg 53%
    13:00 +23°C° 0 mm 4 m/S 747 mmHg 52%
    14:00 +25°C° 0 mm 4 m/S 747 mmHg 52%
    15:00 +25°C° 0.1 mm 4 m/S 746 mmHg 55%
    16:00 +25°C° 0.1 mm 4 m/S 746 mmHg 59%
    17:00 +25°C° 0.1 mm 4 m/S 746 mmHg 62%
    18:00 +22°C° 0.1 mm 3 m/S 746 mmHg 70%
    19:00 +21°C° 0.1 mm 3 m/S 746 mmHg 79%
    20:00 +19°C° 0.1 mm 2 m/S 746 mmHg 87%
    21:00 +19°C° 0.4 mm 2 m/S 746 mmHg 89%
    22:00 +18°C° 0.4 mm 2 m/S 746 mmHg 91%
    23:00 +18°C° 0.4 mm 2 m/S 746 mmHg 93%

    28 Mai, Dienstag

    Zeit Temperatur Niederschläge Wind Luftdruck Luftfeuchtigkeit
    00:00 +18°C° 0 mm 2 m/S 746 mmHg 93%
    01:00 +18°C° 0 mm 1 m/S 746 mmHg 93%
    02:00 +18°C° 0 mm 1 m/S 746 mmHg 94%
    03:00 +18°C° 0 mm 1 m/S 746 mmHg 94%
    04:00 +18°C° 0 mm 1 m/S 746 mmHg 94%
    05:00 +18°C° 0 mm 2 m/S 745 mmHg 93%
    06:00 +19°C° 0 mm 2 m/S 745 mmHg 91%
    07:00 +19°C° 0 mm 2 m/S 745 mmHg 88%
    08:00 +20°C° 0 mm 2 m/S 745 mmHg 86%
    09:00 +21°C° 0.3 mm 3 m/S 745 mmHg 84%
    10:00 +22°C° 0.3 mm 4 m/S 745 mmHg 82%
    11:00 +23°C° 0.3 mm 5 m/S 745 mmHg 80%
    12:00 +25°C° 0.5 mm 4 m/S 745 mmHg 77%
    13:00 +25°C° 0.5 mm 4 m/S 744 mmHg 75%
    14:00 +26°C° 0.5 mm 3 m/S 744 mmHg 72%
    15:00 +26°C° 1.3 mm 3 m/S 744 mmHg 73%
    16:00 +26°C° 1.3 mm 3 m/S 744 mmHg 75%
    17:00 +26°C° 1.3 mm 3 m/S 744 mmHg 76%
    18:00 +25°C° 0.9 mm 3 m/S 744 mmHg 78%
    19:00 +22°C° 0.9 mm 3 m/S 744 mmHg 80%
    20:00 +21°C° 0.9 mm 3 m/S 744 mmHg 82%
    21:00 +20°C° 0 mm 3 m/S 744 mmHg 84%
    22:00 +20°C° 0 mm 3 m/S 744 mmHg 85%
    23:00 +19°C° 0 mm 4 m/S 744 mmHg 86%

    29 Mai, Mittwoch

    Zeit Temperatur Niederschläge Wind Luftdruck Luftfeuchtigkeit
    00:00 +19°C° 0 mm 4 m/S 744 mmHg 86%
    01:00 +18°C° 0 mm 4 m/S 743 mmHg 86%
    02:00 +18°C° 0 mm 4 m/S 743 mmHg 85%
    03:00 +17°C° 0.3 mm 4 m/S 743 mmHg 87%
    04:00 +17°C° 0.3 mm 3 m/S 743 mmHg 88%
    05:00 +17°C° 0.3 mm 3 m/S 743 mmHg 90%
    06:00 +18°C° 0.1 mm 3 m/S 743 mmHg 88%
    07:00 +19°C° 0.1 mm 4 m/S 743 mmHg 86%
    08:00 +20°C° 0.1 mm 4 m/S 743 mmHg 85%
    09:00 +22°C° 0 mm 4 m/S 744 mmHg 78%
    10:00 +25°C° 0 mm 4 m/S 744 mmHg 71%
    11:00 +27°C° 0 mm 4 m/S 744 mmHg 64%
    12:00 +27°C° 0 mm 4 m/S 744 mmHg 61%
    13:00 +28°C° 0 mm 5 m/S 744 mmHg 57%
    14:00 +28°C° 0 mm 5 m/S 744 mmHg 53%
    15:00 +28°C° 0.1 mm 5 m/S 744 mmHg 56%
    16:00 +27°C° 0.1 mm 4 m/S 744 mmHg 59%
    17:00 +27°C° 0.1 mm 4 m/S 744 mmHg 62%
    18:00 +25°C° 0.1 mm 3 m/S 744 mmHg 69%
    19:00 +23°C° 0.1 mm 2 m/S 745 mmHg 76%
    20:00 +22°C° 0.1 mm 1 m/S 745 mmHg 83%
    21:00 +21°C° 0 mm 1 m/S 745 mmHg 85%
    22:00 +20°C° 0 mm 1 m/S 745 mmHg 87%
    23:00 +19°C° 0 mm 1 m/S 746 mmHg 90%
    Mehr zeigen